Regional Weather Roundup
Issued by NWS Charleston, SC

Home | Current Version | Previous Version | Text Only | Print | Product List | Glossary On
Versions: 1 2 3 4 5 6 7 8 9 10 11 12 13 14 15 16 17 18 19 20 21 22 23 24 25 26 27 28 29 30 31 32 33 34 35 36 37 38 39 40 41 42 43 44 45 46 47 48 49 50
000
ASUS42 KCHS 060827
RWRCHS

REGIONAL WEATHER ROUNDUP
NATIONAL WEATHER SERVICE CHARLESTON SC
300 AM EST TUE DEC 06 2016

NOTE: "FAIR" INDICATES FEW OR NO CLOUDS BELOW 12,000 FEET WITH NO
SIGNIFICANT WEATHER AND/OR OBSTRUCTIONS TO VISIBILITY.

NOT ALL STATIONS ARE QUALITY CONTROLLED. USE DATA WITH CAUTION...
ESPECIALLY DEWPOINT OBSERVATIONS.

SCZ027-030-031-034>040-042>050-060900-
...SOUTHEAST SOUTH CAROLINA...

CITY           SKY/WX    TMP DP  RH WIND       PRES   REMARKS
N CHARLESTON   LGT RAIN  57  55  93 NE10      29.87F
WATERFRONT PRK   N/A     59  59 100 NE13      29.88F
MOUNT PLEASANT LGT RAIN  59  57  94 NE7       29.89R
JOHNS ISLAND   DRIZZLE   59  57  94 NE9       29.87S
PINOPOLIS        N/A     55  55 100 NE9       29.83
MONCKS CORNER  RAIN      54  54 100 E9G16     29.86F
SUMMERVILLE    RAIN     N/A N/A N/A NE7       29.85F
BEAUFORT MCAS  CLOUDY    58  57  97 E9        29.83F
BEAUFORT ARPT  DRIZZLE   57  55  94 NE13      29.82F
HILTON HEAD IS DRIZZLE   59  59 100 N10       29.83F
WALTERBORO     HVY RAIN  59 N/A N/A E9        29.85F
ALLENDALE      LGT RAIN  57  55  94 VRB5      29.85R

...SOUTHERN MIDLANDS AND PEE DEE...

CITY           SKY/WX    TMP DP  RH WIND       PRES   REMARKS
GEORGETOWN     NOT AVBL
KINGSTREE      RAIN      52  50  93 E9        29.90F
ORANGEBURG     HVY RAIN  54  53  97 VRB7      29.87F FOG
BARNWELL       NOT AVBL
AIKEN          RAIN      52  50  93 E8G20     29.85F
MANNING        RAIN      52  52 100 CALM      29.90R
COLUMBIA       RAIN      54  52  93 E5        29.88F FOG
SUMTER         LGT RAIN  52  50  93 E9        29.85F
FLORENCE       LGT RAIN  51  50  96 E16G23    29.93F
MYRTLE BEACH   CLOUDY    52  48  87 NE13      29.95F
N MYRTLE BEACH LGT RAIN  49  49 100 NE14G22   29.95F

$$

GAZ063-065-086>088-099>101-113>116-118-119-134>141-150-060900-
...SOUTHEAST GEORGIA...

CITY           SKY/WX    TMP DP  RH WIND       PRES   REMARKS
SAVANNAH ARPT  HVY RAIN  59  56  89 VRB3      29.87R FOG
HUNTER AAF     HVY RAIN  59  59 100 CALM      29.82S FOG
FORT STEWART   HVY RAIN  59  57  94 CALM      29.81S FOG
STATESBORO     NOT AVBL
SYLVANIA       HVY RAIN N/A N/A N/A NE3       29.86R
CLAXTON        HVY RAIN N/A N/A N/A CALM      29.84S

...CSRA...CENTRAL AND FAR SOUTHEAST GEORGIA...

CITY           SKY/WX    TMP DP  RH WIND       PRES   REMARKS
THOMSON        CLOUDY    55  55 100 E5        29.85F
AUGUSTA-BUSH   RAIN      56  53  90 E8        29.81F
AUGUSTA-DANIEL RAIN      55  52  89 E8        29.83F
SWAINSBORO     CLOUDY    59  59 100 SE12      29.80F
VIDALIA        LGT RAIN  59  59 100 E9        29.80F
EASTMAN        RAIN      60  60 100 SE3       29.81S
HAZLEHURST     CLOUDY    60  60 100 E8        29.77F
ALMA           RAIN      59  59 100 N6        29.80S FOG
WAYCROSS       CLOUDY    74  74 100 S10       29.77F
JESUP          CLOUDY    63  63 100 N3        29.81F
BAXLEY         LGT RAIN  61  61 100 NE7       29.80F
BRUNSWICK      RAIN      64  64 100 CALM      29.84R
SAINT SIMONS   RAIN      65  65 100 SE9       29.83R FOG

$$

SCZ027-028-034-036>038-045-046-048>050-GAZ119-141-060900-
...LAKE AND SUPPLEMENTAL COASTAL OBSERVATIONS...

STATION/POSITION TIME  TEMP    WIND        PRES    WAVE   SWELL
                       AIR SEA DIR/SP/G            HT/PER HT/PER/DIR
                 (UTC) (F)     (DEG/KT/KT) (MB)    (FT/S) (FT/S/D)
WINYAH BAY       0730   56      60/ 17     1013.0S
LAKE MURRAY      0730   53      60/  4/ 10 1011.5F
ACE BASIN NERRS  0745   57      30/  5     1011.0F
FORT PULASKI     0800   60 62   60/ 14/ 17 1009.7
SAPELO ISLAND    0800   64      80/  7     1010.0

$$

ANZ835-935-AMZ111-154-330-350-352-354-370-450-454-472-060900-
...C-MAN AND BUOY OBSERVATIONS...

STATION/POSITION TIME  TEMP    WIND        PRES    WAVE   SWELL
                       AIR SEA DIR/SP/G            HT/PER HT/PER/DIR
                 (UTC) (F)     (DEG/KT/KT) (MB)    (FT/S) (FT/S/D)
BUOY 41004       0750   69 74   50/ 21/ 25 1010.1F   5/ 6   2/110/11
BUOY 41008       0750   66 65   70/  8/ 10 1009.5F   3/ 5   3/ 70/ 5
FOLLY BEACH CMAN 0800   59      10/ 13/ 16 1012.8R
CAPERS NEARSHORE 0708   60 61   50/ 21/ 27 1012.2F
FRIPP NEARSHORE  0808   61 62   50/ 16/ 23 1009.9F


STATION/POSITION TIME  TEMP    WIND        PRES    WAVE   SWELL
                       AIR SEA DIR/SP/G            HT/PER HT/PER/DIR
                 (UTC) (F)     (DEG/KT/KT) (MB)    (FT/S) (FT/S/D)
5E ST. MARYS GA  0800      66                N/A     3/ 5
FRYING PAN BUOY  0810   66 74   30/ 21/ 27 1013.0
BUOY 41025       0750   60 76   30/ 17/ 19 1016.5F   5/ 9   3/ 50/ 9
CAPE LOOKOUT NC  0800   52      20/ 15/ 20 1016.2R
BUOY 41002       0750   74 74  210/ 16/ 21 1013.7F   6/ 7   2/ 40/10
BUOY 41010       NOT AVBL
ST AUGUSTINE FL  0800   75 68  190/ 16/ 20 1010.8F


$$



USA.gov is the U.S. government's official web portal to all federal, state and local government web resources and services.